User: anonymous   Login
Location: Oshawa
(43.9000°N, 78.8670°W)
Time: 15:15:55
(UTC-04:00)
Language:

SPOT 5 - Orbit

View from above orbital plane
View from above orbital plane
View from above satellite
View from above satellite

Ground track
Ground track

The orbit data is extracted from the following two-line orbital elements,

1 27421U 02021A   18171.15382344  .00000075  00000-0  28576-4 0  9993
2 27421  98.3587 238.8305 0134258 281.5062  77.1091 14.51935318839065
Epoch (UTC): 20 June 2018 03:41:30
Eccentricity: 0.0134258
inclination: 98.3587°
perigee height: 624 km
apogee height: 814 km
right ascension of ascending node: 238.8305°
argument of perigee: 281.5062°
revolutions per day: 14.51935318
mean anomaly at epoch: 77.1091°
orbit number at epoch: 83906

The dashed part of the orbit path shows where the satellite is in the earth's shadow,  

DLR